Weather History for St. Kitts, Saint Kitts and Nevis

Change the Weather History Date:

Sunday, October 20, 2013

  Actual Average Record
Temperature  
Mean Temperature 83 °F -  
Max Temperature 88 °F 84 °F 88 °F (2013)
Min Temperature 78 °F 75 °F 73 °F (2006)
Cooling Degree Days 18    
Growing Degree Days 33 (Base 50)    
Moisture  
Dew Point 77 °F    
Average Humidity 83    
Maximum Humidity 94    
Minimum Humidity 64    
Precipitation  
Precipitation 0.12 in - - ()
Sea Level Pressure  
Sea Level Pressure 29.94 in    
Wind  
Wind Speed 6 mph ()    
Max Wind Speed 14 mph    
Max Gust Speed -    
Visibility 8.8 miles    
Events Rain , Thunderstorm    
Averages and records for this station are not official NWS values.
T = Trace of Precipitation, MM = Missing Value Source: Averaged Metar Reports

Daily Weather History Graph

Daily Weather History Graph

Search for Another Location

Airport:

Trip Planner

Search our weather history database for the weather conditions in past years. The results will help you decide how hot, cold, wet, or windy it might be!

Date:

Astronomy

Oct. 20, 2013 Rise Set
Actual Time 6:05 AM AST 5:45 PM AST
Civil Twilight 5:43 AM AST 6:07 PM AST
Nautical Twilight 5:17 AM AST 6:32 PM AST
Astronomical Twilight 4:52 AM AST 6:58 PM AST
Moon 7:07 PM AST (10/20) 7:24 AM AST (10/20)
Length of Visible Light 12h 24m
Length of Day
11h 40m
Full, 97% of the Moon is Illuminated
Oct 20
Full
Oct 26
Last Quarter
Nov 3
New
Nov 10
First Quarter
Nov 17
Full

Hourly Weather History & Observations

Time (AST) Temp. Heat Index Dew Point Humidity Pressure Visibility Wind Dir Wind Speed Gust Speed Precip Events Conditions
6:00 AM 80.6 °F 87.1 °F 77.0 °F 89% 29.89 in 6.2 mi ENE 5.8 mph - N/A   Scattered Clouds
7:00 AM 82.4 °F 90.9 °F 77.0 °F 84% 29.92 in 6.2 mi East 12.7 mph - N/A   Scattered Clouds
8:00 AM 83 °F - 77 °F 76% 29.96 in 19 mi ENE 9.2 mph - -   Partly Cloudy
8:00 AM 84.2 °F 94.1 °F 77.0 °F 79% 29.95 in 6.2 mi ENE 9.2 mph - N/A   Partly Cloudy
9:00 AM 84.2 °F 94.1 °F 77.0 °F 79% 29.98 in 6.2 mi ENE 13.8 mph - N/A   Partly Cloudy
10:00 AM 87.8 °F 99.7 °F 77.0 °F 70% 29.98 in 6.2 mi East 12.7 mph - N/A   Scattered Clouds
11:00 AM 88 °F - 78 °F 64% 29.99 in 16 mi East 10.4 mph - -   Partly Cloudy
11:00 AM 87.8 °F 99.7 °F 77.0 °F 70% 29.98 in 6.2 mi East 10.4 mph - N/A   Partly Cloudy
12:00 PM 78.8 °F - 75.2 °F 89% 29.95 in 6.2 mi North 4.6 mph - N/A   Partly Cloudy
1:00 PM 78.8 °F - 75.2 °F 89% 29.95 in 5.0 mi East 13.8 mph - N/A Rain Light Rain Showers
2:00 PM 79 °F - 75 °F 83% 29.93 in 17 mi Calm Calm - - Rain Light Rain Showers
2:00 PM 78.8 °F - 75.2 °F 89% 29.92 in 6.2 mi Calm Calm - N/A Rain Light Rain Showers
3:00 PM 84.2 °F 94.1 °F 77.0 °F 79% 29.89 in 6.2 mi Calm Calm - N/A Rain Light Rain Showers
4:00 PM 80.6 °F 87.1 °F 77.0 °F 89% 29.92 in 6.2 mi NE 5.8 mph - N/A Thunderstorm Thunderstorm
5:00 PM 81 °F - 78 °F 88% 29.92 in 17 mi Calm Calm - -   Mostly Cloudy
5:00 PM 80.6 °F 88.1 °F 78.8 °F 94% 29.92 in 6.2 mi Calm Calm - N/A   Scattered Clouds
6:00 PM 82.4 °F 90.9 °F 77.0 °F 84% 29.89 in 6.2 mi South 6.9 mph - N/A   Partly Cloudy
7:00 PM 80.6 °F 87.1 °F 77.0 °F 89% 29.92 in 6.2 mi Calm Calm - N/A   Scattered Clouds
8:00 PM 81 °F - 77 °F 85% 29.94 in 17 mi ENE 5.8 mph - -   Partly Cloudy
8:00 PM 80.6 °F 87.1 °F 77.0 °F 89% 29.92 in 6.2 mi ENE 5.8 mph - N/A   Partly Cloudy
9:00 PM 80.6 °F 87.1 °F 77.0 °F 89% 29.95 in 6.2 mi Calm Calm - N/A   Scattered Clouds